Regional Weather Roundup
Issued by NWS Green Bay, WI

Home | Current Version | Previous Version | Graphics & Text | Print | Product List | Glossary Off
Versions: 1 2 3 4 5 6 7 8 9 10 11 12 13 14 15 16 17 18 19 20 21 22 23 24 25 26 27 28 29 30 31 32 33 34 35 36 37 38 39 40 41 42 43 44 45 46 47 48 49 50

000
ASUS43 KGRB 312359
RWRGRB

NORTH-CENTRAL AND NORTHEAST WISCONSIN REGIONAL WEATHER ROUNDUP
NATIONAL WEATHER SERVICE GREEN BAY WI
600 PM CST SAT JAN 31 2015

WIZ005-009-010>012-018-019-010100-
NORTH CENTRAL WISCONSIN

CITY           SKY/WX    TMP DP  RH WIND       PRES   REMARKS
IRONWOOD       CLOUDY    16   9  73 NE5       30.25R WCI   9
MANITOWISH WTR NOT AVBL
ARBOR VITAE    NOT AVBL
EAGLE RIVER    NOT AVBL
LAND O LAKES   NOT AVBL
RHINELANDER    CLOUDY    17   8  67 NE8       30.21R WCI   7
PHILLIPS       NOT AVBL
ANTIGO         NOT AVBL
TOMAHAWK       NOT AVBL
MERRILL        NOT AVBL
$$

WIZ013-073-010100-
NORTHEAST WISCONSIN

CITY           SKY/WX    TMP DP  RH WIND       PRES   REMARKS
IRON MOUNTAIN  PTCLDY    16   6  65 N10       30.24R WCI   4
MARINETTE      CLOUDY    25  18  74 E14       30.24R
$$

WIZ017-030-035>037-045-010100-
CENTRAL WISCONSIN

CITY           SKY/WX    TMP DP  RH WIND       PRES   REMARKS
MEDFORD        NOT AVBL
WAUSAU         CLOUDY    24  16  71 NE5       30.18R
MOSINEE        CLOUDY    25  21  86 N6        30.19S
MARSHFIELD     CLOUDY    26  17  68 NE10      30.18R
WISC RAPIDS    CLOUDY    27  17  66 NE6       30.20R
STEVENS POINT  NOT AVBL
WAUPACA        NOT AVBL
SHAWANO        NOT AVBL
CLINTONVILLE   NOT AVBL
$$

WIZ038-039-048-051-010100-
FOX VALLEY

CITY           SKY/WX    TMP DP  RH WIND       PRES   REMARKS
NWS GREEN BAY  CLOUDY    27  19  72 NE6       30.22R
APPLETON       NOT AVBL
OSHKOSH        CLOUDY    27  19  72 NE5       30.20R
FOND DU LAC    CLOUDY    27  19  72 NE9       30.20R
$$

WIZ022-050-052-010100-
EAST CENTRAL WISCONSIN

CITY           SKY/WX    TMP DP  RH WIND       PRES   REMARKS
STURGEON BAY   CLOUDY    25  18  74 NE12      30.25R
MANITOWOC      NOT AVBL
SHEBOYGAN      CLOUDY    28  20  71 NE9       30.20R
$$

LMZ563-521-522-541>543-010100-
LAKESHORE

STATION/POSITION TIME  TEMP    WIND        PRES    VSBY  WAVE
                       AIR SEA DIR/SP/G                  HT/PER
                 (UTC) (F)     (DEG/KT/KT) (MB)    (MI)  (FT/S)
SHEBOYGAN LKSHOR 2300   29      10/ 10/ 12 1023.8R
KEWAUNEE LKSHORE 2300   27     360/  2/  4 1022.5R
NORTHPORT PIER   2300   22     360/ 15/ 22 1024.4R
SISTER BAY LKSHO 2300   24      10/ 14/ 20   N/A
STURGEON BAY CG  2300   27                 1022.6   3 1/2  1
CHAMBERS ISLAND  2300   23      10/ 15/ 17 1024.4R
MENOMINEE LKSHOR 2300   24      40/ 18     1024.4R
$$



USA.gov is the U.S. government's official web portal to all federal, state and local government web resources and services.